Weather History for K2WX - October, 2012

Change the Weather History Date:

Monday, October 1, 2012

  Actual Average Record
Temperature  
Mean Temperature 55 °F 51 °F  
Max Temperature 68 °F 64 °F 93 °F (2011)
Min Temperature 41 °F 38 °F 21 °F (1999)
Degree Days  
Heating Degree Days 10 14  
Month to date heating degree days 10 14  
Since 1 July heating degree days 169 305  
Cooling Degree Days 0 0  
Month to date cooling degree days 0 0  
Year to date cooling degree days 853 512  
Growing Degree Days 4 (Base 50)    
Moisture  
Dew Point 34 °F    
Average Humidity 60    
Maximum Humidity 100    
Minimum Humidity 19    
Precipitation  
Precipitation 0.00 in 0.01 in 0.19 in (1999)
Month to date precipitation 0.00 0.01  
Year to date precipitation 7.59 13.23  
Sea Level Pressure  
Sea Level Pressure 30.10 in    
Wind  
Wind Speed 10 mph (WSW)    
Max Wind Speed 17 mph    
Max Gust Speed 22 mph    
T = Trace of Precipitation, MM = Missing Value Source: NWS Daily Summary

Daily Weather History Graph

Daily Weather History Graph

Search for Another Location

Airport or City:

Trip Planner

Search our weather history database for the weather conditions in past years. The results will help you decide how hot, cold, wet, or windy it might be!

Date:

Astronomy

Oct. 01, 2012 Rise Set
Actual Time 6:53 AM MDT 6:33 PM MDT
Civil Twilight 6:23 AM MDT 7:02 PM MDT
Nautical Twilight 5:49 AM MDT 7:37 PM MDT
Astronomical Twilight 5:14 AM MDT 8:12 PM MDT
Moon 7:03 PM MDT (10/1) 8:32 AM MDT (10/1)
Length of Visible Light 12h 39m
Length of Day
11h 40m
Full, 97% of the Moon is Illuminated
Oct 1
Full
Oct 8
Last Quarter
Oct 15
New
Oct 21
First Quarter
Oct 29
Full

Hourly Weather History & Observations

Time (MDT) Temp. Windchill Dew Point Humidity Pressure Visibility Wind Dir Wind Speed Gust Speed Precip Events Conditions
12:56 AM 50.0 °F - 43.0 °F 77% 30.15 in - NNW 10.4 mph - N/A   Unknown
1:56 AM 50.0 °F - 44.1 °F 80% 30.16 in - NNW 11.5 mph - N/A   Unknown
2:56 AM 46.9 °F - 44.1 °F 90% 30.18 in - North 13.8 mph - N/A   Unknown
3:56 AM 45.0 °F 38.9 °F 43.0 °F 93% 30.19 in - NW 12.7 mph - N/A   Unknown
4:56 AM 43.0 °F 35.4 °F 42.1 °F 97% 30.22 in - NNW 16.1 mph - N/A   Unknown
5:56 AM 41.0 °F 39.0 °F 39.9 °F 96% 30.23 in - WNW 3.5 mph - N/A   Unknown
6:56 AM 43.0 °F 37.7 °F 43.0 °F 100% 30.25 in - NW 9.2 mph - N/A   Unknown
7:56 AM 42.1 °F 36.6 °F 42.1 °F 100% 30.27 in - WNW 9.2 mph - N/A   Unknown
8:56 AM 46.9 °F - 44.1 °F 90% 30.27 in - West 10.4 mph - N/A   Unknown
9:56 AM 53.1 °F - 41.0 °F 64% 30.25 in - West 6.9 mph - N/A   Unknown
10:56 AM 57.0 °F - 36.0 °F 45% 30.22 in - WNW 8.1 mph - N/A   Unknown
12:56 PM 62.1 °F - 30.0 °F 30% 30.16 in - West 8.1 mph - N/A   Unknown
1:56 PM 64.9 °F - 28.0 °F 25% 30.11 in - WSW 8.1 mph 16.1 mph N/A   Unknown
2:56 PM 66.9 °F - 28.0 °F 23% 30.09 in - Calm Calm - N/A   Unknown
3:56 PM 66.9 °F - 26.1 °F 21% 30.05 in - SSW 10.4 mph - N/A   Unknown
4:56 PM 68.0 °F - 25.0 °F 20% 30.03 in - SW 6.9 mph - N/A   Unknown
5:56 PM 64.9 °F - 26.1 °F 23% 30.01 in - South 9.2 mph - N/A   Unknown
6:56 PM 57.9 °F - 26.1 °F 30% 29.99 in - SSE 11.5 mph - N/A   Unknown
7:56 PM 54.0 °F - 26.1 °F 34% 29.98 in - SSE 13.8 mph - N/A   Unknown
8:56 PM 52.0 °F - 26.1 °F 37% 29.96 in - SSE 16.1 mph - N/A   Unknown
9:56 PM 50.0 °F - 26.1 °F 39% 29.92 in - SSE 12.7 mph - N/A   Unknown
10:56 PM 50.0 °F - 27.0 °F 41% 29.88 in - SSE 13.8 mph - N/A   Unknown
11:56 PM 50.0 °F - 28.9 °F 44% 29.84 in - South 13.8 mph - N/A   Unknown